Stündliche Wetter Bolshie Negnovichi

Heute, 17 Juni, Donnerstag

Zeit Temperatur Niederschläge Wind Luftdruck Luftfeuchtigkeit
00:00 +13°C° 0 mm 2 m/S 750 mmHg 78%
01:00 +13°C° 0 mm 2 m/S 750 mmHg 79%
02:00 +12°C° 0 mm 2 m/S 750 mmHg 80%
03:00 +12°C° 0 mm 2 m/S 750 mmHg 80%
04:00 +13°C° 0 mm 2 m/S 750 mmHg 79%
05:00 +13°C° 0 mm 2 m/S 751 mmHg 79%
06:00 +15°C° 0 mm 2 m/S 751 mmHg 72%
07:00 +17°C° 0 mm 2 m/S 751 mmHg 65%
08:00 +19°C° 0 mm 2 m/S 751 mmHg 58%
09:00 +21°C° 0 mm 2 m/S 752 mmHg 55%
10:00 +23°C° 0 mm 2 m/S 752 mmHg 51%
11:00 +25°C° 0 mm 2 m/S 752 mmHg 48%
12:00 +25°C° 0 mm 2 m/S 752 mmHg 46%
13:00 +26°C° 0 mm 2 m/S 752 mmHg 45%
14:00 +26°C° 0 mm 2 m/S 752 mmHg 44%
15:00 +26°C° 0 mm 2 m/S 752 mmHg 47%
16:00 +26°C° 0 mm 2 m/S 752 mmHg 50%
17:00 +25°C° 0 mm 3 m/S 752 mmHg 53%
18:00 +24°C° 0 mm 2 m/S 752 mmHg 61%
19:00 +21°C° 0 mm 2 m/S 752 mmHg 69%
20:00 +19°C° 0 mm 2 m/S 752 mmHg 77%
21:00 +18°C° 0 mm 2 m/S 752 mmHg 80%
22:00 +17°C° 0 mm 2 m/S 753 mmHg 82%
23:00 +16°C° 0 mm 2 m/S 753 mmHg 84%

Morgen, 18 Juni, Freitag

Zeit Temperatur Niederschläge Wind Luftdruck Luftfeuchtigkeit
00:00 +15°C° 0 mm 1 m/S 753 mmHg 85%
01:00 +15°C° 0 mm 1 m/S 753 mmHg 86%
02:00 +14°C° 0 mm 1 m/S 753 mmHg 87%
03:00 +14°C° 0 mm 1 m/S 753 mmHg 86%
04:00 +15°C° 0 mm 1 m/S 753 mmHg 85%
05:00 +15°C° 0 mm 1 m/S 753 mmHg 85%
06:00 +17°C° 0 mm 2 m/S 753 mmHg 78%
07:00 +19°C° 0 mm 2 m/S 753 mmHg 71%
08:00 +21°C° 0 mm 2 m/S 753 mmHg 64%
09:00 +23°C° 0 mm 2 m/S 753 mmHg 59%
10:00 +24°C° 0 mm 3 m/S 753 mmHg 54%
11:00 +26°C° 0 mm 3 m/S 753 mmHg 49%
12:00 +26°C° 0 mm 3 m/S 753 mmHg 48%
13:00 +26°C° 0 mm 3 m/S 753 mmHg 46%
14:00 +27°C° 0 mm 3 m/S 753 mmHg 44%
15:00 +27°C° 0 mm 3 m/S 752 mmHg 47%
16:00 +27°C° 0 mm 3 m/S 752 mmHg 50%
17:00 +26°C° 0 mm 3 m/S 752 mmHg 53%
18:00 +24°C° 0 mm 3 m/S 752 mmHg 62%
19:00 +22°C° 0 mm 3 m/S 752 mmHg 71%
20:00 +20°C° 0 mm 2 m/S 752 mmHg 80%
21:00 +19°C° 0 mm 2 m/S 752 mmHg 83%
22:00 +18°C° 0 mm 2 m/S 752 mmHg 86%
23:00 +17°C° 0 mm 2 m/S 752 mmHg 89%

übermorgen, 19 Juni, Samstag

Zeit Temperatur Niederschläge Wind Luftdruck Luftfeuchtigkeit
00:00 +16°C° 0 mm 2 m/S 752 mmHg 91%
01:00 +16°C° 0 mm 2 m/S 752 mmHg 92%
02:00 +15°C° 0 mm 2 m/S 752 mmHg 93%
03:00 +15°C° 0 mm 2 m/S 752 mmHg 92%
04:00 +16°C° 0 mm 2 m/S 752 mmHg 92%
05:00 +16°C° 0 mm 2 m/S 752 mmHg 91%
06:00 +18°C° 0 mm 2 m/S 752 mmHg 85%
07:00 +20°C° 0 mm 2 m/S 752 mmHg 78%
08:00 +23°C° 0 mm 2 m/S 752 mmHg 71%
09:00 +24°C° 0 mm 3 m/S 752 mmHg 66%
10:00 +25°C° 0 mm 3 m/S 752 mmHg 60%
11:00 +26°C° 0 mm 3 m/S 752 mmHg 55%
12:00 +27°C° 0 mm 3 m/S 751 mmHg 52%
13:00 +27°C° 0 mm 3 m/S 751 mmHg 50%
14:00 +28°C° 0 mm 3 m/S 751 mmHg 47%
15:00 +28°C° 0 mm 3 m/S 751 mmHg 50%
16:00 +28°C° 0 mm 3 m/S 750 mmHg 53%
17:00 +27°C° 0 mm 3 m/S 750 mmHg 56%
18:00 +26°C° 0 mm 3 m/S 750 mmHg 64%
19:00 +24°C° 0 mm 2 m/S 750 mmHg 72%
20:00 +21°C° 0 mm 2 m/S 750 mmHg 81%
21:00 +20°C° 0 mm 2 m/S 750 mmHg 84%
22:00 +19°C° 0 mm 2 m/S 750 mmHg 87%
23:00 +18°C° 0 mm 2 m/S 750 mmHg 91%

20 Juni, Sonntag

Zeit Temperatur Niederschläge Wind Luftdruck Luftfeuchtigkeit
00:00 +18°C° 0 mm 2 m/S 750 mmHg 92%
01:00 +17°C° 0 mm 2 m/S 750 mmHg 93%
02:00 +17°C° 0 mm 2 m/S 750 mmHg 95%
03:00 +17°C° 0 mm 2 m/S 750 mmHg 94%
04:00 +18°C° 0 mm 2 m/S 750 mmHg 94%
05:00 +18°C° 0 mm 2 m/S 750 mmHg 94%
06:00 +19°C° 0 mm 2 m/S 750 mmHg 88%
07:00 +21°C° 0 mm 2 m/S 750 mmHg 82%
08:00 +24°C° 0 mm 3 m/S 750 mmHg 76%
09:00 +24°C° 0 mm 3 m/S 750 mmHg 76%
10:00 +24°C° 0 mm 3 m/S 750 mmHg 76%
11:00 +24°C° 0 mm 3 m/S 750 mmHg 75%
12:00 +26°C° 0.1 mm 3 m/S 750 mmHg 71%
13:00 +27°C° 0.1 mm 2 m/S 749 mmHg 66%
14:00 +28°C° 0.1 mm 2 m/S 749 mmHg 61%
15:00 +28°C° 0.1 mm 2 m/S 749 mmHg 61%
16:00 +28°C° 0.1 mm 2 m/S 748 mmHg 62%
17:00 +28°C° 0.1 mm 2 m/S 748 mmHg 63%
18:00 +27°C° 0.2 mm 2 m/S 748 mmHg 69%
19:00 +25°C° 0.2 mm 2 m/S 748 mmHg 76%
20:00 +24°C° 0.2 mm 2 m/S 748 mmHg 83%
21:00 +23°C° 0 mm 2 m/S 748 mmHg 86%
22:00 +21°C° 0 mm 2 m/S 748 mmHg 90%
23:00 +20°C° 0 mm 2 m/S 748 mmHg 93%

21 Juni, Montag

Zeit Temperatur Niederschläge Wind Luftdruck Luftfeuchtigkeit
00:00 +19°C° 0 mm 2 m/S 748 mmHg 93%
01:00 +19°C° 0 mm 2 m/S 748 mmHg 94%
02:00 +18°C° 0 mm 2 m/S 748 mmHg 94%
03:00 +18°C° 0 mm 2 m/S 748 mmHg 94%
04:00 +18°C° 0 mm 2 m/S 748 mmHg 93%
05:00 +19°C° 0 mm 1 m/S 748 mmHg 93%
06:00 +20°C° 0 mm 2 m/S 748 mmHg 86%
07:00 +23°C° 0 mm 2 m/S 748 mmHg 78%
08:00 +24°C° 0 mm 3 m/S 748 mmHg 71%
09:00 +26°C° 0 mm 3 m/S 748 mmHg 64%
10:00 +27°C° 0 mm 4 m/S 748 mmHg 58%
11:00 +29°C° 0 mm 4 m/S 748 mmHg 51%
12:00 +29°C° 0 mm 4 m/S 748 mmHg 50%
13:00 +29°C° 0 mm 4 m/S 748 mmHg 49%
14:00 +30°C° 0 mm 4 m/S 747 mmHg 48%
15:00 +29°C° 0 mm 4 m/S 747 mmHg 53%
16:00 +29°C° 0 mm 4 m/S 747 mmHg 57%
17:00 +28°C° 0 mm 4 m/S 747 mmHg 62%
18:00 +27°C° 0 mm 4 m/S 747 mmHg 68%
19:00 +25°C° 0 mm 3 m/S 747 mmHg 74%
20:00 +24°C° 0 mm 3 m/S 747 mmHg 81%
21:00 +22°C° 0 mm 3 m/S 747 mmHg 85%
22:00 +21°C° 0 mm 3 m/S 747 mmHg 89%
23:00 +20°C° 0 mm 3 m/S 747 mmHg 94%

22 Juni, Dienstag

Zeit Temperatur Niederschläge Wind Luftdruck Luftfeuchtigkeit
00:00 +20°C° 0 mm 2 m/S 747 mmHg 95%
01:00 +20°C° 0 mm 2 m/S 747 mmHg 95%
02:00 +20°C° 0 mm 2 m/S 747 mmHg 96%
03:00 +20°C° 0 mm 3 m/S 747 mmHg 96%
04:00 +20°C° 0 mm 3 m/S 747 mmHg 95%
05:00 +20°C° 0 mm 3 m/S 747 mmHg 94%
06:00 +22°C° 0 mm 3 m/S 747 mmHg 86%
07:00 +23°C° 0 mm 4 m/S 747 mmHg 79%
08:00 +26°C° 0 mm 5 m/S 747 mmHg 71%
09:00 +27°C° 0 mm 5 m/S 747 mmHg 65%
10:00 +29°C° 0 mm 5 m/S 747 mmHg 58%
11:00 +30°C° 0 mm 5 m/S 747 mmHg 51%
12:00 +32°C° 0 mm 5 m/S 747 mmHg 50%
13:00 +32°C° 0 mm 5 m/S 747 mmHg 48%
14:00 +33°C° 0 mm 5 m/S 747 mmHg 46%
15:00 +32°C° 0 mm 5 m/S 747 mmHg 51%
16:00 +32°C° 0 mm 5 m/S 747 mmHg 55%
17:00 +30°C° 0 mm 5 m/S 747 mmHg 59%
18:00 +29°C° 0 mm 4 m/S 747 mmHg 65%
19:00 +27°C° 0 mm 4 m/S 747 mmHg 71%
20:00 +26°C° 0 mm 3 m/S 747 mmHg 78%
21:00 +25°C° 0 mm 3 m/S 747 mmHg 82%
22:00 +22°C° 0 mm 3 m/S 747 mmHg 87%
23:00 +21°C° 0 mm 3 m/S 747 mmHg 91%
Mehr zeigen

Wir brauchen deine Erlaubnis

Meteoprog und unser Service Anbieter werden persönliche Daten aufbewahren, so wie Cookies, Geräte Bezeichnung oder ähnliche Technologien von deinem Gerät und Prozess, so wie Persönliche Daten Inhalte und Werbungen, genauso wie social Media und den Verkehr zu analysieren.

  • Aufbewahrung und/oder Zugang zu deiner Geräte Informationen.

    Cookies, Geräte Bezeichnung oder andere Informationen, können aufbewahrt oder Zugang zu deinem Gerät erhalten, für den Grund, der oben angegeben wird.

  • Personalisierte Werbung und Inhalte, Messungen, Einblick in das Publikum und Produkt Entwicklung.

    Werbungen und Inhalte können personalisiert werden, basierend auf ein Profil. Mehr Daten können besser personalisierte Werbungen und Inhalte hinzufügen. Werbung und Inhalte können gezeigt und gemessen werden. Einblicke über das Publikum, welche die Werbung gesehen haben und den Inhalt, können abgeleitet werden. So wie Daten können genutzt werden, um es zu verbessern oder die Benutzer Erfahrung zu verbessern das System und die Software.

Wenn du “Ich stimme zu” klickst, erlaubst du uns, die Cookies zu benutzen die Geräte Bezeichnung, den Web oder ähnliche Technologien zu benutzen. Deine Settings, können in deinem Gerät bei deinem Browser geändert werden.

Für den bestimmten Zweck, berechtigten Interessen beruhen darauf, mehr als auf den Inhalt. Du kannst mehr darüber in unseren Privaten und Cookie Politik lesen.